Find Starlink 11116

NORAD ID: 60045 Int'l Des: 2024-112 Owner: SPXS Country: US Constellation: starlink operational
又名: STARLINK-11116 [DTC] celestrak
LEOCIRCULAR

当前视图

正在加载3D地球...

About Starlink 11116

Starlink 11116 (NORAD 60045) is a starlink constellation satellite (v2 mini d2c) launched Jun 8, 2024 by SPXS of US. It operates in LEO, CIRCULAR orbit with a mass of 960.00 kg.

即将过境

Passes for default location (London). Set your location on the main map for personalized predictions.

高度历史

Loading altitude history...

两行轨道根数

1 60045U 24112H 26235.51429949 .00002283 00000-0 23699-4 0 9994
2 60045 53.1593 163.8150 0000873 91.4948 268.6170 15.69702909127187
Epoch: Aug 23, 2026 • Age: 22 hours

当前状态

高度 360.5 km
远地点 / 近地点 N/A
速度 7.70 km/s
星下点 26.13°N, 170.23°W
发射日期 Jun 8, 2024
运行时间 2.2 years
类型 internet

技术详情

分类 Payload
质量 960.00 kg
干质量 910.00 kg
总质量 960.00 kg
长度 0.30 m
直径 4.10 m
跨度 29.00 m
形状 Box + pan
制造商 SPXS
平台类型 Starlink V2MD
阶段状态 In Orbit
所有者/国家 SPXS/US

Most Searched